Weather History for Winnipeg, MB

Change the Weather History Date:

Wednesday, July 31, 2013

  Actual Average Record
Temperature  
Mean Temperature 61 °F -  
Max Temperature 72 °F 76 °F 93 °F (2007)
Min Temperature 50 °F 55 °F 44 °F (1998)
Degree Days  
Heating Degree Days 4    
Growing Degree Days 11 (Base 50)    
Moisture  
Dew Point 53 °F    
Average Humidity 75    
Maximum Humidity 100    
Minimum Humidity 47    
Precipitation  
Precipitation 0.00 in - - ()
Sea Level Pressure  
Sea Level Pressure 30.00 in    
Wind  
Wind Speed 10 mph ()    
Max Wind Speed 17 mph    
Max Gust Speed 25 mph    
Visibility 14.1 miles    
Events      
Averages and records for this station are not official NWS values.
T = Trace of Precipitation, MM = Missing Value Source: Averaged Metar Reports

Daily Weather History Graph

Daily Weather History Graph

Search for Another Location

Airport:

Trip Planner

Search our weather history database for the weather conditions in past years. The results will help you decide how hot, cold, wet, or windy it might be!

Date:

Astronomy

Jul. 31, 2013 Rise Set
Actual Time 5:57 AM CDT 9:12 PM CDT
Civil Twilight 5:18 AM CDT 9:50 PM CDT
Nautical Twilight 4:27 AM CDT 10:41 PM CDT
Astronomical Twilight 3:21 AM CDT 11:46 PM CDT
Moon 12:54 AM CDT (7/31) 4:31 PM CDT (7/31)
Length of Visible Light 16h 31m
Length of Day
15h 14m
Waning Crescent, 31% of the Moon is Illuminated
Jul 31
Waning Crescent
Aug 6
New
Aug 14
First Quarter
Aug 20
Full
Aug 28
Last Quarter

Hourly Weather History & Observations

Time (CDT) Temp. Dew Point Humidity Pressure Visibility Wind Dir Wind Speed Gust Speed Precip Events Conditions
12:00 AM 57.2 °F 55.4 °F 94% 30.01 in 15.0 mi West 9.2 mph - N/A   Scattered Clouds
1:00 AM 56 °F 56 °F 100% 30.00 in 9 mi Calm Calm - -  
1:00 AM 55.4 °F 53.6 °F 94% 30.01 in 15.0 mi WSW 9.2 mph - N/A   Partly Cloudy
2:00 AM 53.6 °F 51.8 °F 94% 30.00 in 15.0 mi WSW 9.2 mph - N/A   Partly Cloudy
3:00 AM 53.6 °F 51.8 °F 94% 30.00 in 15.0 mi West 10.4 mph - N/A   Clear
4:00 AM 51.8 °F 50.0 °F 94% 30.00 in 15.0 mi West 11.5 mph - N/A   Clear
5:00 AM 51.8 °F 50.0 °F 94% 30.00 in 15.0 mi West 10.4 mph - N/A   Partly Cloudy
6:00 AM 50.0 °F 48.2 °F 94% 30.00 in 15.0 mi West 9.2 mph - N/A   Partly Cloudy
7:00 AM 52 °F 51 °F 95% 30.00 in 9 mi Calm Calm - -  
7:00 AM 51.8 °F 50.0 °F 94% 30.01 in 15.0 mi West 11.5 mph - N/A   Partly Cloudy
8:00 AM 55.4 °F 51.8 °F 88% 30.01 in 15.0 mi West 13.8 mph - N/A   Partly Cloudy
9:00 AM 59.0 °F 53.6 °F 82% 30.01 in 15.0 mi West 12.7 mph 18.4 mph N/A   Partly Cloudy
10:00 AM 62.6 °F 53.6 °F 72% 30.01 in 15.0 mi WNW 13.8 mph 23.0 mph N/A   Scattered Clouds
11:00 AM 62.6 °F 51.8 °F 68% 30.01 in 15.0 mi West 15.0 mph 21.9 mph N/A   Mostly Cloudy
12:00 PM 66.2 °F 51.8 °F 60% 30.01 in 15.0 mi WNW 16.1 mph 23.0 mph N/A   Mostly Cloudy
1:00 PM 67 °F 53 °F 52% 30.00 in 9 mi Calm Calm - -  
1:00 PM 66.2 °F 53.6 °F 64% 30.01 in 15.0 mi WNW 12.7 mph 23.0 mph N/A   Mostly Cloudy
2:00 PM 68.0 °F 51.8 °F 56% 30.00 in 15.0 mi WNW 17.3 mph 24.2 mph N/A   Mostly Cloudy
3:00 PM 71.6 °F 51.8 °F 50% 30.00 in 15.0 mi NW 16.1 mph 25.3 mph N/A   Mostly Cloudy
4:00 PM 71.6 °F 53.6 °F 53% 29.99 in 15.0 mi NW 16.1 mph 25.3 mph N/A   Mostly Cloudy
5:00 PM 71.6 °F 51.8 °F 50% 29.99 in 15.0 mi NW 15.0 mph 21.9 mph N/A   Mostly Cloudy
6:00 PM 69.8 °F 51.8 °F 53% 29.98 in 15.0 mi West 12.7 mph - N/A   Mostly Cloudy
7:00 PM 70 °F 54 °F 47% 29.97 in 9 mi Calm Calm - -  
7:00 PM 69.8 °F 53.6 °F 56% 29.97 in 15.0 mi NNW 12.7 mph - N/A   Mostly Cloudy
8:00 PM 68.0 °F 55.4 °F 64% 29.97 in 15.0 mi NNW 6.9 mph - N/A   Mostly Cloudy
9:00 PM 60.8 °F 55.4 °F 82% 29.97 in 15.0 mi WNW 5.8 mph - N/A   Mostly Cloudy
10:00 PM 60.8 °F 55.4 °F 82% 29.98 in 15.0 mi West 6.9 mph - N/A   Mostly Cloudy
11:00 PM 59.0 °F 53.6 °F 82% 29.97 in 15.0 mi West 5.8 mph - N/A   Mostly Cloudy